Weather History for Eastsound, WA

Change the Weather History Date:

Tuesday, November 19, 2013

  Actual Average (KBLI) Record (KBLI)
Temperature  
Mean Temperature 40 °F 42 °F  
Max Temperature 44 °F 49 °F 63 °F (2006)
Min Temperature 37 °F 36 °F 23 °F (1956)
Degree Days  
Heating Degree Days 24 23  
Month to date heating degree days 390  
Cooling Degree Days 0 0  
Month to date cooling degree days 0  
Year to date cooling degree days 42  
Moisture  
Dew Point 42 °F    
Average Humidity 100    
Maximum Humidity 100    
Minimum Humidity 100    
Precipitation  
Precipitation 0.01 in 0.20 in 1.50 in (2002)
Month to date precipitation 3.75  
Year to date precipitation 29.56  
Sea Level Pressure  
Sea Level Pressure 29.81 in    
Wind  
Wind Speed 7 mph (NW)    
Max Wind Speed 21 mph    
Max Gust Speed 25 mph    
Visibility 10 miles    
Events Rain    
T = Trace of Precipitation, MM = Missing Value Source: NWS Daily Summary

Daily Weather History Graph

Daily Weather History Graph

Search for Another Location

Airport:

Trip Planner

Search our weather history database for the weather conditions in past years. The results will help you decide how hot, cold, wet, or windy it might be!

Date:

Astronomy

Nov. 19, 2013 Rise Set
Actual Time 7:26 AM PST 4:26 PM PST
Civil Twilight 6:51 AM PST 5:01 PM PST
Nautical Twilight 6:13 AM PST 5:40 PM PST
Astronomical Twilight 5:35 AM PST 6:17 PM PST
Moon 6:21 PM PST (11/19) 9:12 AM PST (11/19)
Length of Visible Light 10h 09m
Length of Day
9h 00m
Waning Gibbous, 95% of the Moon is Illuminated
Nov 19
Waning Gibbous
Nov 25
Last Quarter
Dec 2
New
Dec 9
First Quarter
Dec 17
Full

Hourly Weather History & Observations

Time (PST) Temp. Windchill Dew Point Humidity Pressure Visibility Wind Dir Wind Speed Gust Speed Precip Events Conditions
12:15 AM 44.6 °F 40.2 °F 44.6 °F 100% 29.56 in 3.0 mi North 8.1 mph - 0.01 in Rain Rain
12:35 AM 44.6 °F 40.7 °F 44.6 °F 100% 29.56 in 5.0 mi NNW 6.9 mph - 0.01 in Rain Rain
12:55 AM 44.6 °F 42.2 °F 44.6 °F 100% 29.57 in 7.0 mi NW 4.6 mph - 0.01 in Rain Light Rain
1:15 AM 44.6 °F 40.2 °F 44.6 °F 100% 29.58 in 8.0 mi NW 8.1 mph - N/A   Overcast
1:35 AM 44.6 °F 42.2 °F 44.6 °F 100% 29.58 in 9.0 mi NW 4.6 mph - N/A   Overcast
1:55 AM 44.6 °F - 44.6 °F 100% 29.58 in 10.0 mi Calm Calm - N/A   Overcast
2:15 AM 44.6 °F - 44.6 °F 100% 29.59 in 10.0 mi Calm Calm - N/A   Overcast
2:35 AM 44.6 °F - 44.6 °F 100% 29.60 in 9.0 mi North - - N/A   Overcast
2:55 AM 42.8 °F - 42.8 °F 100% 29.61 in 3.0 mi Calm Calm - N/A Rain Light Rain
3:15 AM 42.8 °F - 42.8 °F 100% 29.62 in 9.0 mi Calm Calm - N/A   Mostly Cloudy
3:35 AM 42.8 °F - 42.8 °F 100% 29.62 in 10.0 mi Calm Calm - N/A   Overcast
3:55 AM 41.0 °F - 41.0 °F 100% 29.63 in 10.0 mi Calm Calm - N/A   Mostly Cloudy
4:15 AM 41.0 °F - 41.0 °F 100% 29.64 in 10.0 mi Calm Calm - N/A   Mostly Cloudy
4:35 AM 41.0 °F - 41.0 °F 100% 29.64 in 10.0 mi North - - N/A   Overcast
4:55 AM 42.8 °F 40.1 °F 42.8 °F 100% 29.65 in 10.0 mi SSW 4.6 mph - N/A Rain Light Rain
5:15 AM 41.0 °F - 41.0 °F 100% 29.66 in 9.0 mi Calm Calm - N/A   Mostly Cloudy
5:35 AM 41.0 °F - 41.0 °F 100% 29.67 in 9.0 mi Calm Calm - N/A   Mostly Cloudy
5:55 AM 41.0 °F - 41.0 °F 100% 29.67 in 10.0 mi Calm Calm - N/A   Mostly Cloudy
6:15 AM 41.0 °F 39.0 °F 41.0 °F 100% 29.68 in 10.0 mi South 3.5 mph - N/A   Mostly Cloudy
6:35 AM 41.0 °F - 41.0 °F 100% 29.70 in 10.0 mi Calm Calm - N/A   Scattered Clouds
6:55 AM 41.0 °F 38.0 °F 41.0 °F 100% 29.71 in 10.0 mi SSW 4.6 mph - N/A   Scattered Clouds
7:15 AM 41.0 °F 39.0 °F 41.0 °F 100% 29.72 in 10.0 mi SSW 3.5 mph - N/A   Mostly Cloudy
7:35 AM 41.0 °F 38.0 °F 41.0 °F 100% 29.73 in 10.0 mi SW 4.6 mph - N/A   Mostly Cloudy
7:55 AM 41.0 °F 39.0 °F 41.0 °F 100% 29.75 in 10.0 mi WSW 3.5 mph - N/A   Mostly Cloudy
8:15 AM 42.8 °F 36.2 °F 42.8 °F 100% 29.76 in 10.0 mi NNW 12.7 mph 17.3 mph N/A   Mostly Cloudy
8:35 AM 41.0 °F 35.2 °F 41.0 °F 100% 29.77 in 7.0 mi NW 9.2 mph 19.6 mph N/A Rain Light Rain
8:55 AM 41.0 °F 35.8 °F 41.0 °F 100% 29.78 in 6.0 mi NW 8.1 mph 18.4 mph N/A Rain Light Rain
9:15 AM 41.0 °F 37.1 °F 41.0 °F 100% 29.79 in 10.0 mi NW 5.8 mph - N/A   Overcast
9:35 AM 41.0 °F 38.0 °F 41.0 °F 100% 29.80 in 10.0 mi WSW 4.6 mph - N/A   Overcast
9:55 AM 41.0 °F 39.0 °F 41.0 °F 100% 29.81 in 10.0 mi SW 3.5 mph - N/A   Mostly Cloudy
10:15 AM 42.8 °F 39.3 °F 42.8 °F 100% 29.81 in 10.0 mi SW 5.8 mph - N/A   Overcast
10:35 AM 42.8 °F 38.0 °F 42.8 °F 100% 29.82 in 10.0 mi NNW 8.1 mph - N/A   Mostly Cloudy
10:55 AM 44.6 °F 40.7 °F 44.6 °F 100% 29.83 in 10.0 mi NW 6.9 mph - N/A   Scattered Clouds
11:15 AM 44.6 °F 40.2 °F 44.6 °F 100% 29.84 in 10.0 mi NW 8.1 mph - N/A   Clear
11:35 AM 44.6 °F 40.7 °F 44.6 °F 100% 29.84 in 10.0 mi NNW 6.9 mph - N/A   Clear
11:55 AM 44.6 °F 39.7 °F 44.6 °F 100% 29.84 in 10.0 mi NW 9.2 mph 20.7 mph N/A   Clear
12:15 PM 42.8 °F 38.0 °F 42.8 °F 100% 29.85 in 10.0 mi NNW 8.1 mph 20.7 mph N/A   Clear
12:35 PM 44.6 °F 39.2 °F 44.6 °F 100% 29.85 in 10.0 mi NNW 10.4 mph 18.4 mph N/A   Clear
12:55 PM 44.6 °F 38.8 °F 44.6 °F 100% 29.85 in 10.0 mi NNW 11.5 mph 18.4 mph N/A   Clear
1:15 PM 44.6 °F 39.7 °F 44.6 °F 100% 29.85 in 10.0 mi NNW 9.2 mph 16.1 mph N/A   Clear
1:35 PM 44.6 °F 38.4 °F 44.6 °F 100% 29.86 in 10.0 mi NNW 12.7 mph 20.7 mph N/A   Clear
1:55 PM 44.6 °F 39.7 °F 44.6 °F 100% 29.85 in 10.0 mi NNW 9.2 mph 19.6 mph N/A   Partly Cloudy
2:15 PM 42.8 °F 36.2 °F 42.8 °F 100% 29.86 in 10.0 mi NNW 12.7 mph 19.6 mph N/A   Clear
2:35 PM 42.8 °F 39.3 °F 42.8 °F 100% 29.86 in 10.0 mi NW 5.8 mph - N/A   Clear
2:55 PM 44.6 °F 38.8 °F 44.6 °F 100% 29.87 in 10.0 mi NNW 11.5 mph 17.3 mph N/A   Partly Cloudy
3:15 PM 42.8 °F 36.2 °F 42.8 °F 100% 29.87 in 10.0 mi NNW 12.7 mph 20.7 mph N/A   Mostly Cloudy
3:35 PM 42.8 °F 36.2 °F 42.8 °F 100% 29.88 in 10.0 mi NNW 12.7 mph 19.6 mph N/A   Mostly Cloudy
3:55 PM 41.0 °F 33.1 °F 41.0 °F 100% 29.88 in 10.0 mi North 15.0 mph 21.9 mph N/A   Mostly Cloudy
4:15 PM 41.0 °F 32.8 °F 41.0 °F 100% 29.89 in 10.0 mi NNW 16.1 mph 20.7 mph N/A   Overcast
4:35 PM 41.0 °F 32.8 °F 41.0 °F 100% 29.89 in 10.0 mi NNW 16.1 mph 24.2 mph N/A   Mostly Cloudy
4:55 PM 41.0 °F 33.9 °F 41.0 °F 100% 29.90 in 10.0 mi NNW 12.7 mph - N/A   Overcast
5:15 PM 41.0 °F 32.8 °F 41.0 °F 100% 29.90 in 10.0 mi NNW 16.1 mph 24.2 mph N/A   Mostly Cloudy
5:35 PM 41.0 °F 33.1 °F 41.0 °F 100% 29.91 in 10.0 mi NNW 15.0 mph 23.0 mph N/A   Scattered Clouds
5:55 PM 41.0 °F 32.8 °F 41.0 °F 100% 29.92 in 10.0 mi NNW 16.1 mph 25.3 mph N/A   Partly Cloudy
6:15 PM 41.0 °F 32.5 °F 41.0 °F 100% 29.92 in 10.0 mi North 17.3 mph 24.2 mph N/A   Clear
6:35 PM 41.0 °F 33.1 °F 41.0 °F 100% 29.92 in 10.0 mi NNW 15.0 mph 25.3 mph N/A   Clear
6:55 PM 39.2 °F 30.8 °F 39.2 °F 100% 29.93 in 10.0 mi NNW 15.0 mph 23.0 mph N/A   Clear
7:15 PM 39.2 °F 33.0 °F 39.2 °F 100% 29.94 in 10.0 mi NW 9.2 mph 20.7 mph N/A   Scattered Clouds
7:35 PM 39.2 °F 30.2 °F 39.2 °F 100% 29.95 in 10.0 mi NNW 17.3 mph 24.2 mph N/A   Clear
7:55 PM 39.2 °F 31.2 °F 39.2 °F 100% 29.95 in 10.0 mi NNW 13.8 mph 23.0 mph N/A   Clear
8:15 PM 39.2 °F 32.0 °F 39.2 °F 100% 29.97 in 10.0 mi NW 11.5 mph 24.2 mph N/A   Clear
8:35 PM 37.4 °F 30.8 °F 37.4 °F 100% 29.98 in 10.0 mi NNW 9.2 mph 16.1 mph N/A   Clear
8:55 PM 37.4 °F 31.4 °F 37.4 °F 100% 29.99 in 10.0 mi NNW 8.1 mph 16.1 mph N/A   Clear
9:15 PM 37.4 °F 28.9 °F 37.4 °F 100% 30.00 in 10.0 mi NW 13.8 mph 21.9 mph N/A   Clear
9:35 PM 37.4 °F 30.3 °F 37.4 °F 100% 30.01 in 10.0 mi WNW 10.4 mph 17.3 mph N/A   Clear
9:55 PM 37.4 °F 30.8 °F 37.4 °F 100% 30.02 in 10.0 mi NNW 9.2 mph 17.3 mph N/A   Partly Cloudy
10:15 PM 39.2 °F 34.2 °F 39.2 °F 100% 30.03 in 10.0 mi NW 6.9 mph 19.6 mph N/A   Mostly Cloudy
10:35 PM 39.2 °F 31.6 °F 39.2 °F 100% 30.03 in 10.0 mi NNW 12.7 mph 23.0 mph N/A   Overcast
10:55 PM 39.2 °F 29.3 °F 39.2 °F 100% 30.04 in 10.0 mi North 20.7 mph 24.2 mph N/A   Mostly Cloudy
11:15 PM 39.2 °F 33.6 °F 39.2 °F 100% 30.05 in 10.0 mi North 8.1 mph - N/A   Partly Cloudy
11:35 PM 37.4 °F 31.4 °F 37.4 °F 100% 30.06 in 10.0 mi North 8.1 mph - N/A   Clear
11:55 PM 37.4 °F 31.4 °F 37.4 °F 100% 30.07 in 10.0 mi NNE 8.1 mph - N/A   Clear